Regional Weather Roundup
Issued by NWS Sioux Falls, SD

Home | Current Version | Previous Version | Text Only | Print | Product List | Glossary On
Versions: 1 2 3 4 5 6 7 8 9 10 11 12 13 14 15 16 17 18 19 20 21 22 23 24 25 26 27 28 29 30 31 32 33 34 35 36 37 38 39 40 41 42 43 44 45 46 47 48 49 50
000
ASUS43 KFSD 290910
RWRFSD

WEATHER ROUNDUP FOR SE SOUTH DAKOTA/SW MINNESOTA/NW IOWA
NATIONAL WEATHER SERVICE SIOUX FALLS SD
400 AM CDT WED JUL 29 2015

NOTE: "FAIR" INDICATES FEW OR NO CLOUDS BELOW 12,000 FEET WITH NO
SIGNIFICANT WEATHER AND OR OBSTRUCTIONS TO VISIBILITY.


SDZ038>040-050-052>070-291000-
SOUTHEAST SOUTH DAKOTA

CITY           SKY/WX    TMP DP  RH WIND       PRES   REMARKS
BROOKINGS      CLEAR     57  48  72 SW7       30.04S
CHAMBERLAIN    CLEAR     59  49  69 W9        30.09S
HURON          CLEAR     63  47  55 W12       30.02S
MADISON        FAIR      61  48  63 W12       30.05S
MITCHELL       CLEAR     62  51  67 W10       30.07R
SIOUX FALLS    CLEAR     63  52  67 SW3       30.07R
WINNER         FAIR      61  46  57 W9        30.13R
YANKTON        CLEAR     61  52  72 SW6       30.09R
$$

MNZ071-072-080-081-089-090-097-098-291000-
SOUTHWEST MINNESOTA

CITY           SKY/WX    TMP DP  RH WIND       PRES   REMARKS
FAIRMONT       CLEAR     63  52  67 W8        30.02S
JACKSON        CLEAR     59  54  82 SW6       30.05S
LUVERNE        CLEAR     57  54  88 W8        30.06R
MARSHALL       CLEAR     61  50  67 SW12      30.00R
MONTEVIDEO     CLEAR     64  52  63 W9G20     29.96S
PIPESTONE      CLEAR     55  52  88 SW5       30.06R
REDWOOD FALLS  CLEAR     64  52  64 SW13      29.97R
TRACY          CLEAR     63  54  72 W10       30.02R
WINDOM         CLEAR     61  54  77 SW5       30.02S
WORTHINGTON    CLEAR     57  50  77 SW9       30.06R
$$

IAZ001>003-012>014-020>022-031-032-NEZ013-014-SDZ071-291000-
NORTHWEST IOWA

CITY           SKY/WX    TMP DP  RH WIND       PRES   REMARKS
CHEROKEE         N/A     57  57 100 CALM      30.09R FOG
DENISON        MOCLDY    59  59 100 CALM      30.07S
ESTHERVILLE    PTCLDY    57  55  93 SW6       30.05R
LE MARS        CLEAR     55  55 100 S3        30.10R
ORANGE CITY    CLEAR     59  55  88 CALM      30.09R
SHELDON        CLEAR     54  52  94 W3        30.06S
SIOUX CITY     CLEAR     60  57  89 W3        30.10R
SPENCER        CLEAR     58  54  86 CALM      30.07R
STORM LAKE     CLEAR     63  59  88 NW8       30.10R
$$

ABBREVIATIONS USED IN REMARKS
   TC - TEMPERATURE IN CELSIUS
  WCI - WIND CHILL INDEX
   HX - HEAT INDEX
  VSB - VISIBILITY




USA.gov is the U.S. government's official web portal to all federal, state and local government web resources and services.